EZY656V EGGW-EGAC

Flight info

Callsign EZY656V
Flight time N/A
Altitude 32000
Route OLNEY T420 TNT UL28 RODOL UM65 TENSO L603 BELOX DCT REMSI DCT NINEB M148 MAGEE
Aircraft A320/M-SDE3FGHIRWY/LB1

Departure

Time 2026-05-05 17:13
Airport London Luton Airport (EGGW)

Arrival

Time N/A
Airport George Best Belfast City Airport (EGAC)
Time Latitude Longitude Altitude Speed Heading
2026-05-05 16:38 51.87811 -0.37152 513 ft 0 kts 252°
2026-05-05 17:00 51.87814 -0.37138 513 ft 3 kts 252°
2026-05-05 17:00 51.87820 -0.37107 513 ft 3 kts 252°
2026-05-05 17:00 51.87826 -0.37079 513 ft 1 kts 252°
2026-05-05 17:00 51.87832 -0.37053 513 ft 3 kts 221°
2026-05-05 17:01 51.87846 -0.37042 512 ft 3 kts 169°
2026-05-05 17:01 51.87863 -0.37050 511 ft 1 kts 162°
2026-05-05 17:01 51.87864 -0.37050 511 ft 1 kts 162°
2026-05-05 17:07 51.87853 -0.37044 511 ft 5 kts 162°
2026-05-05 17:07 51.87776 -0.37005 516 ft 13 kts 162°
2026-05-05 17:07 51.87711 -0.36970 521 ft 6 kts 161°
2026-05-05 17:08 51.87688 -0.36958 523 ft 1 kts 161°
2026-05-05 17:08 51.87672 -0.36949 524 ft 7 kts 162°
2026-05-05 17:08 51.87618 -0.37035 522 ft 20 kts 257°
2026-05-05 17:08 51.87584 -0.37234 522 ft 16 kts 254°
2026-05-05 17:09 51.87582 -0.37381 522 ft 12 kts 281°
2026-05-05 17:09 51.87546 -0.37468 521 ft 10 kts 202°
2026-05-05 17:09 51.87503 -0.37542 522 ft 8 kts 252°
2026-05-05 17:09 51.87496 -0.37582 522 ft 7 kts 253°
2026-05-05 17:10 51.87487 -0.37640 523 ft 7 kts 256°
2026-05-05 17:10 51.87480 -0.37680 523 ft 9 kts 254°
2026-05-05 17:10 51.87457 -0.37817 522 ft 20 kts 255°
2026-05-05 17:10 51.87422 -0.37999 524 ft 10 kts 238°
2026-05-05 17:11 51.87375 -0.38063 523 ft 7 kts 207°
2026-05-05 17:11 51.87364 -0.38072 523 ft 0 kts 206°
2026-05-05 17:11 51.87360 -0.38076 523 ft 1 kts 206°
2026-05-05 17:11 51.87325 -0.38102 522 ft 12 kts 204°
2026-05-05 17:12 51.87254 -0.38110 523 ft 7 kts 153°
2026-05-05 17:12 51.87253 -0.38053 524 ft 4 kts 71°
2026-05-05 17:12 51.87254 -0.38049 524 ft 0 kts 72°
2026-05-05 17:13 51.87279 -0.37910 524 ft 47 kts 74°
2026-05-05 17:13 51.87434 -0.37010 523 ft 116 kts 75°
2026-05-05 17:13 51.87701 -0.35463 590 ft 162 kts 76°
2026-05-05 17:13 51.87978 -0.33756 1451 ft 154 kts 71°
2026-05-05 17:14 51.88257 -0.32094 2212 ft 153 kts 71°
2026-05-05 17:14 51.88551 -0.30367 2741 ft 166 kts 70°
2026-05-05 17:14 51.88912 -0.28516 3211 ft 180 kts 70°
2026-05-05 17:14 51.89547 -0.26743 3596 ft 193 kts 34°
2026-05-05 17:15 51.90884 -0.26244 3910 ft 211 kts 350°
2026-05-05 17:15 51.92182 -0.27405 4405 ft 222 kts 311°
2026-05-05 17:15 51.92776 -0.29725 5173 ft 233 kts 277°
2026-05-05 17:15 51.92804 -0.32343 5975 ft 234 kts 271°
2026-05-05 17:16 51.92741 -0.34992 6494 ft 237 kts 268°
2026-05-05 17:16 51.92654 -0.37645 7389 ft 235 kts 274°
2026-05-05 17:16 51.93017 -0.40179 8248 ft 231 kts 301°
2026-05-05 17:16 51.94044 -0.42139 9087 ft 230 kts 315°
2026-05-05 17:17 51.95170 -0.44023 9859 ft 235 kts 314°
2026-05-05 17:17 51.96366 -0.45980 10298 ft 256 kts 314°
2026-05-05 17:17 51.97636 -0.48082 10648 ft 274 kts 314°
2026-05-05 17:17 51.99021 -0.50385 11002 ft 295 kts 314°
2026-05-05 17:18 52.00504 -0.52844 11381 ft 314 kts 314°
2026-05-05 17:18 52.02068 -0.55434 11705 ft 326 kts 314°
2026-05-05 17:18 52.03667 -0.58074 12317 ft 329 kts 314°
2026-05-05 17:18 52.05274 -0.60758 13123 ft 333 kts 313°
2026-05-05 17:19 52.06890 -0.63480 13875 ft 337 kts 312°
2026-05-05 17:19 52.08523 -0.66238 14517 ft 342 kts 313°
2026-05-05 17:19 52.10183 -0.69042 15130 ft 346 kts 312°
2026-05-05 17:19 52.11862 -0.71863 15808 ft 348 kts 314°
2026-05-05 17:20 52.13748 -0.74376 16393 ft 354 kts 326°
2026-05-05 17:20 52.15870 -0.76483 16984 ft 359 kts 327°
2026-05-05 17:20 52.18019 -0.78591 17607 ft 363 kts 328°
2026-05-05 17:20 52.20187 -0.80730 18207 ft 366 kts 327°
2026-05-05 17:21 52.22378 -0.82903 18748 ft 370 kts 327°
2026-05-05 17:21 52.24582 -0.85092 19289 ft 372 kts 327°
2026-05-05 17:21 52.26803 -0.87298 19850 ft 375 kts 327°
2026-05-05 17:22 52.31294 -0.91743 20931 ft 380 kts 326°
2026-05-05 17:22 52.33559 -0.93990 21454 ft 382 kts 326°
2026-05-05 17:22 52.35824 -0.96241 21945 ft 385 kts 326°
2026-05-05 17:22 52.38109 -0.98522 22448 ft 388 kts 326°
2026-05-05 17:23 52.40422 -1.00840 22940 ft 391 kts 326°
2026-05-05 17:23 52.42752 -1.03174 23404 ft 394 kts 326°
2026-05-05 17:23 52.45098 -1.05530 23826 ft 397 kts 326°
2026-05-05 17:23 52.47464 -1.07910 24232 ft 400 kts 326°
2026-05-05 17:24 52.49845 -1.10304 24599 ft 403 kts 326°
2026-05-05 17:24 52.52236 -1.12711 24990 ft 406 kts 326°
2026-05-05 17:24 52.54661 -1.15153 25361 ft 409 kts 326°
2026-05-05 17:24 52.57093 -1.17605 25728 ft 412 kts 326°
2026-05-05 17:25 52.59541 -1.20074 26094 ft 414 kts 326°
2026-05-05 17:25 52.61204 -1.21751 26335 ft 416 kts 326°
2026-05-05 17:25 52.64487 -1.25063 26806 ft 420 kts 326°
2026-05-05 17:25 52.66982 -1.27591 27164 ft 422 kts 325°
2026-05-05 17:26 52.69490 -1.30135 27523 ft 425 kts 325°
2026-05-05 17:26 52.72014 -1.32702 27876 ft 427 kts 325°
2026-05-05 17:26 52.74551 -1.35290 28223 ft 430 kts 325°
2026-05-05 17:26 52.77102 -1.37894 28588 ft 432 kts 325°
2026-05-05 17:27 52.79665 -1.40515 28935 ft 434 kts 325°
2026-05-05 17:27 52.82240 -1.43146 29277 ft 437 kts 325°
2026-05-05 17:27 52.84822 -1.45788 29607 ft 439 kts 325°
2026-05-05 17:27 52.87425 -1.48459 29933 ft 441 kts 325°
2026-05-05 17:28 52.90026 -1.51128 30215 ft 444 kts 325°
2026-05-05 17:28 52.92656 -1.53827 30523 ft 444 kts 327°
2026-05-05 17:28 52.95285 -1.56528 30827 ft 445 kts 327°
2026-05-05 17:28 52.97922 -1.59238 31095 ft 447 kts 327°
2026-05-05 17:29 53.00528 -1.61924 31352 ft 448 kts 327°
2026-05-05 17:29 53.03168 -1.64659 31724 ft 446 kts 327°